Weather History for KSAZ - May, 2013

Change the Weather History Date:

Monday, May 27, 2013

  Actual Average Record
Temperature  
Mean Temperature 56 °F -  
Max Temperature 62 °F 66 °F 87 °F (2006)
Min Temperature 51 °F 44 °F 35 °F (2008)
Degree Days  
Heating Degree Days 8    
Growing Degree Days 6 (Base 50)    
Moisture  
Dew Point 46 °F    
Average Humidity 70    
Maximum Humidity 82    
Minimum Humidity 54    
Precipitation  
Precipitation 0.00 in - - ()
Sea Level Pressure  
Sea Level Pressure 29.94 in    
Wind  
Wind Speed 6 mph (ESE)    
Max Wind Speed 10 mph    
Max Gust Speed 16 mph    
Visibility 10 miles    
Events      
Averages and records for this station are not official NWS values.
T = Trace of Precipitation, MM = Missing Value Source: NWS Daily Summary

Daily Weather History Graph

Daily Weather History Graph

Search for Another Location

Airport or City:

Trip Planner

Search our weather history database for the weather conditions in past years. The results will help you decide how hot, cold, wet, or windy it might be!

Date:

Astronomy

May. 27, 2013 Rise Set
Actual Time 5:33 AM CDT 8:59 PM CDT
Civil Twilight 4:56 AM CDT 9:37 PM CDT
Nautical Twilight 4:07 AM CDT 10:26 PM CDT
Astronomical Twilight 3:04 AM CDT 11:30 PM CDT
Moon 11:34 PM CDT (5/27) 8:14 AM CDT (5/27)
Length of Visible Light 16h 40m
Length of Day
15h 25m
Waning Gibbous, 91% of the Moon is Illuminated
May 27
Waning Gibbous
May 31
Last Quarter
Jun 8
New
Jun 16
First Quarter
Jun 23
Full

Hourly Weather History & Observations

Time (CDT) Temp. Dew Point Humidity Pressure Visibility Wind Dir Wind Speed Gust Speed Precip Events Conditions
12:12 AM 55.4 °F 39.2 °F 54% 30.03 in 10.0 mi SE 8.1 mph - N/A   Overcast
12:33 AM 55.4 °F 39.2 °F 54% 30.05 in 10.0 mi SE 6.9 mph - N/A   Overcast
12:54 AM 55.4 °F 39.2 °F 54% 30.06 in 10.0 mi SE 8.1 mph - N/A   Overcast
1:13 AM 55.4 °F 39.2 °F 54% 30.05 in 10.0 mi SE 8.1 mph - N/A   Overcast
1:33 AM 55.4 °F 39.2 °F 54% 30.03 in 10.0 mi ESE 5.8 mph - N/A   Overcast
1:54 AM 55.4 °F 39.2 °F 54% 30.01 in 10.0 mi ESE 4.6 mph - N/A   Mostly Cloudy
2:13 AM 55.4 °F 39.2 °F 54% 30.02 in 10.0 mi SE 5.8 mph - N/A   Mostly Cloudy
2:33 AM 55.4 °F 39.2 °F 54% 30.03 in 10.0 mi ESE 3.5 mph - N/A   Overcast
2:54 AM 53.6 °F 39.2 °F 58% 30.03 in 10.0 mi SE 4.6 mph - N/A   Overcast
3:13 AM 53.6 °F 41.0 °F 62% 30.02 in 10.0 mi East 3.5 mph - N/A   Overcast
3:33 AM 53.6 °F 42.8 °F 67% 30.02 in 10.0 mi Calm Calm - N/A   Overcast
3:52 AM 51.8 °F 42.8 °F 71% 30.01 in 10.0 mi ENE 3.5 mph - N/A   Overcast
4:13 AM 51.8 °F 42.8 °F 71% 30.00 in 10.0 mi East 3.5 mph - N/A   Overcast
4:34 AM 51.8 °F 42.8 °F 71% 30.00 in 10.0 mi East 4.6 mph - N/A   Overcast
4:53 AM 51.8 °F 42.8 °F 71% 30.00 in 10.0 mi Calm Calm - N/A   Overcast
5:13 AM 51.8 °F 42.8 °F 71% 30.01 in 10.0 mi East 4.6 mph - N/A   Overcast
5:34 AM 51.8 °F 41.0 °F 67% 30.01 in 10.0 mi East 3.5 mph - N/A   Overcast
5:53 AM 51.8 °F 41.0 °F 67% 30.01 in 10.0 mi East 4.6 mph - N/A   Overcast
6:13 AM 51.8 °F 41.0 °F 67% 30.01 in 10.0 mi East 3.5 mph - N/A   Overcast
6:34 AM 51.8 °F 41.0 °F 67% 30.00 in 10.0 mi ENE 3.5 mph - N/A   Overcast
6:53 AM 51.8 °F 41.0 °F 67% 29.99 in 10.0 mi ENE 6.9 mph - N/A   Overcast
7:14 AM 51.8 °F 41.0 °F 67% 29.98 in 10.0 mi ENE 5.8 mph - N/A   Overcast
7:33 AM 51.8 °F 42.8 °F 71% 29.98 in 10.0 mi East 8.1 mph - N/A   Overcast
7:53 AM 51.8 °F 42.8 °F 71% 29.99 in 10.0 mi ESE 4.6 mph - N/A   Overcast
8:14 AM 51.8 °F 42.8 °F 71% 29.98 in 10.0 mi East 5.8 mph - N/A   Overcast
8:33 AM 51.8 °F 42.8 °F 71% 29.98 in 10.0 mi East 8.1 mph - N/A   Overcast
8:53 AM 51.8 °F 42.8 °F 71% 29.97 in 10.0 mi East 9.2 mph - N/A   Overcast
9:14 AM 51.8 °F 44.6 °F 76% 29.96 in 10.0 mi East 6.9 mph - N/A   Overcast
9:33 AM 51.8 °F 44.6 °F 76% 29.96 in 10.0 mi ESE 5.8 mph - N/A   Overcast
9:53 AM 53.6 °F 44.6 °F 72% 29.95 in 10.0 mi ESE 5.8 mph - N/A   Overcast
10:14 AM 53.6 °F 46.4 °F 77% 29.96 in 10.0 mi SE 9.2 mph - N/A   Overcast
10:33 AM 53.6 °F 46.4 °F 77% 29.95 in 10.0 mi SE 8.1 mph - N/A   Overcast
10:53 AM 53.6 °F 46.4 °F 77% 29.96 in 10.0 mi SE 5.8 mph - N/A   Overcast
11:14 AM 55.4 °F 46.4 °F 72% 29.95 in 10.0 mi ESE 8.1 mph - N/A   Overcast
11:33 AM 55.4 °F 46.4 °F 72% 29.95 in 10.0 mi ESE 9.2 mph - N/A   Overcast
11:53 AM 57.2 °F 46.4 °F 67% 29.92 in 10.0 mi East 8.1 mph - N/A   Overcast
12:14 PM 57.2 °F 46.4 °F 67% 29.91 in 10.0 mi East 9.2 mph - N/A   Overcast
12:33 PM 59.0 °F 48.2 °F 67% 29.91 in 10.0 mi ESE 10.4 mph - N/A   Overcast
12:53 PM 57.2 °F 48.2 °F 72% 29.92 in 10.0 mi East 5.8 mph 9.2 mph N/A   Overcast
1:13 PM 57.2 °F 46.4 °F 67% 29.91 in 10.0 mi East 6.9 mph - N/A   Overcast
1:33 PM 60.8 °F 48.2 °F 63% 29.90 in 10.0 mi East 6.9 mph - N/A   Overcast
1:54 PM 60.8 °F 46.4 °F 59% 29.90 in 10.0 mi ENE 9.2 mph - N/A   Overcast
2:13 PM 60.8 °F 48.2 °F 63% 29.90 in 10.0 mi East 6.9 mph - N/A   Overcast
2:33 PM 60.8 °F 46.4 °F 59% 29.90 in 10.0 mi East 9.2 mph 16.1 mph N/A   Overcast
2:54 PM 62.6 °F 48.2 °F 59% 29.89 in 10.0 mi East 8.1 mph 16.1 mph N/A   Mostly Cloudy
3:13 PM 60.8 °F 46.4 °F 59% 29.89 in 10.0 mi East 5.8 mph - N/A   Overcast
3:33 PM 60.8 °F 46.4 °F 59% 29.90 in 10.0 mi ESE 8.1 mph - N/A   Overcast
3:54 PM 60.8 °F 48.2 °F 63% 29.90 in 10.0 mi East 4.6 mph - N/A   Overcast
4:13 PM 60.8 °F 48.2 °F 63% 29.90 in 10.0 mi ESE 8.1 mph - N/A   Overcast
4:33 PM 59.0 °F 50.0 °F 72% 29.90 in 10.0 mi ESE 6.9 mph - N/A   Overcast
4:54 PM 57.2 °F 50.0 °F 77% 29.89 in 10.0 mi ESE 8.1 mph - N/A   Overcast
5:13 PM 57.2 °F 50.0 °F 77% 29.88 in 10.0 mi East 9.2 mph - N/A   Overcast
5:33 PM 57.2 °F 50.0 °F 77% 29.88 in 10.0 mi ESE 4.6 mph - N/A   Overcast
5:54 PM 57.2 °F 50.0 °F 77% 29.88 in 10.0 mi East 4.6 mph - N/A   Overcast
6:13 PM 57.2 °F 50.0 °F 77% 29.87 in 10.0 mi ESE 9.2 mph - N/A   Overcast
6:34 PM 57.2 °F 51.8 °F 82% 29.87 in 10.0 mi ESE 9.2 mph - N/A   Overcast
6:53 PM 57.2 °F 51.8 °F 82% 29.87 in 10.0 mi ESE 3.5 mph - N/A   Overcast
7:13 PM 57.2 °F 51.8 °F 82% 29.87 in 10.0 mi ESE 4.6 mph - N/A   Overcast
7:33 PM 57.2 °F 51.8 °F 82% 29.87 in 10.0 mi SE 5.8 mph - N/A   Overcast
7:53 PM 57.2 °F 51.8 °F 82% 29.87 in 10.0 mi SE 3.5 mph - N/A   Overcast
8:13 PM 57.2 °F 51.8 °F 82% 29.87 in 10.0 mi SE 5.8 mph - N/A   Overcast
8:33 PM 57.2 °F 51.8 °F 82% 29.86 in 10.0 mi ESE 4.6 mph - N/A   Overcast
8:53 PM 57.2 °F 51.8 °F 82% 29.86 in 10.0 mi ESE 3.5 mph - N/A   Overcast
9:13 PM 57.2 °F 51.8 °F 82% 29.86 in 10.0 mi SE 3.5 mph - N/A   Overcast
9:33 PM 57.2 °F 51.8 °F 82% 29.86 in 10.0 mi SE 4.6 mph - N/A   Overcast
9:53 PM 57.2 °F 51.8 °F 82% 29.86 in 10.0 mi SE 5.8 mph - N/A   Overcast
10:13 PM 57.2 °F 51.8 °F 82% 29.86 in 10.0 mi SE 4.6 mph - N/A   Overcast
10:33 PM 57.2 °F 51.8 °F 82% 29.86 in 10.0 mi SE 5.8 mph - N/A   Overcast
10:53 PM 57.2 °F 50.0 °F 77% 29.86 in 10.0 mi SE 8.1 mph - N/A   Overcast
11:13 PM 57.2 °F 50.0 °F 77% 29.85 in 10.0 mi SE 3.5 mph - N/A   Overcast
11:33 PM 55.4 °F 50.0 °F 82% 29.85 in 10.0 mi SE 5.8 mph - N/A   Overcast
11:53 PM 55.4 °F 50.0 °F 82% 29.85 in 10.0 mi SE 8.1 mph - N/A   Overcast